Time,TemperatureF,DewpointF,PressureIn,WindDirection,WindDirectionDegrees,WindSpeedMPH,WindSpeedGustMPH,Humidity,HourlyPrecipIn,Conditions,Clouds,dailyrainin,SoftwareType,DateUTC
2013-05-23 00:01:00,51.3,32.7,17.73,North,-999,-999.0,-999.0,36,0.00,,,0.00,meteohub,2013-05-23 07:01:00,
2013-05-23 00:06:00,51.1,32.5,17.73,North,-999,-999.0,-999.0,36,0.00,,,0.00,meteohub,2013-05-23 07:06:00,
2013-05-23 00:11:00,51.1,32.5,17.73,North,-999,-999.0,-999.0,36,0.00,,,0.00,meteohub,2013-05-23 07:11:00,
2013-05-23 00:16:00,50.9,32.4,17.73,North,-999,-999.0,-999.0,36,0.00,,,0.00,meteohub,2013-05-23 07:16:00,
2013-05-23 00:21:00,50.9,32.9,17.73,North,-999,-999.0,-999.0,36,0.00,,,0.00,meteohub,2013-05-23 07:21:00,
2013-05-23 00:26:00,51.1,33.1,17.73,North,-999,-999.0,-999.0,36,0.00,,,0.00,meteohub,2013-05-23 07:26:00,
2013-05-23 00:31:00,51.1,33.1,17.73,North,-999,-999.0,-999.0,36,0.00,,,0.00,meteohub,2013-05-23 07:31:00,
2013-05-23 00:37:00,51.1,33.1,17.73,North,-999,-999.0,-999.0,36,0.00,,,0.00,meteohub,2013-05-23 07:37:00,
2013-05-23 00:42:00,50.9,32.9,17.73,North,-999,-999.0,-999.0,36,0.00,,,0.00,meteohub,2013-05-23 07:42:00,
2013-05-23 00:47:00,50.9,32.4,17.73,North,-999,-999.0,-999.0,36,0.00,,,0.00,meteohub,2013-05-23 07:47:00,
2013-05-23 00:52:00,50.5,32.0,17.73,North,-999,-999.0,-999.0,36,0.00,,,0.00,meteohub,2013-05-23 07:52:00,
2013-05-23 00:57:00,50.4,32.0,17.73,North,-999,-999.0,-999.0,36,0.00,,,0.00,meteohub,2013-05-23 07:57:00,
2013-05-23 01:02:00,50.4,32.4,17.73,North,-999,-999.0,-999.0,36,0.00,,,0.00,meteohub,2013-05-23 08:02:00,
2013-05-23 01:07:00,50.2,32.2,17.73,North,-999,-999.0,-999.0,36,0.00,,,0.00,meteohub,2013-05-23 08:07:00,
2013-05-23 01:12:00,50.2,32.2,17.73,North,-999,-999.0,-999.0,36,0.00,,,0.00,meteohub,2013-05-23 08:12:00,
2013-05-23 01:17:00,50.2,32.2,17.73,North,-999,-999.0,-999.0,36,0.00,,,0.00,meteohub,2013-05-23 08:17:00,
2013-05-23 01:22:00,50.4,32.9,17.73,North,-999,-999.0,-999.0,36,0.00,,,0.00,meteohub,2013-05-23 08:22:00,
2013-05-23 01:27:00,50.5,33.1,17.73,North,-999,-999.0,-999.0,36,0.00,,,0.00,meteohub,2013-05-23 08:27:00,
2013-05-23 01:32:00,50.5,33.1,17.73,North,-999,-999.0,-999.0,36,0.00,,,0.00,meteohub,2013-05-23 08:32:00,
2013-05-23 01:37:00,50.5,33.1,17.73,North,-999,-999.0,-999.0,36,0.00,,,0.00,meteohub,2013-05-23 08:37:00,
2013-05-23 01:42:00,50.5,33.1,17.73,North,-999,-999.0,-999.0,36,0.00,,,0.00,meteohub,2013-05-23 08:42:00,
2013-05-23 01:48:00,50.7,33.3,17.73,North,-999,-999.0,-999.0,36,0.00,,,0.00,meteohub,2013-05-23 08:48:00,
2013-05-23 01:53:00,50.7,33.3,17.73,North,-999,-999.0,-999.0,36,0.00,,,0.00,meteohub,2013-05-23 08:53:00,
2013-05-23 01:58:00,50.7,33.3,17.73,North,-999,-999.0,-999.0,36,0.00,,,0.00,meteohub,2013-05-23 08:58:00,
2013-05-23 02:03:00,50.9,33.4,17.73,North,-999,-999.0,-999.0,36,0.00,,,0.00,meteohub,2013-05-23 09:03:00,
2013-05-23 02:08:00,50.7,33.8,17.73,North,-999,-999.0,-999.0,36,0.00,,,0.00,meteohub,2013-05-23 09:08:00,
2013-05-23 02:13:00,50.9,34.0,17.73,North,-999,-999.0,-999.0,36,0.00,,,0.00,meteohub,2013-05-23 09:13:00,
2013-05-23 02:18:00,50.9,34.0,17.73,North,-999,-999.0,-999.0,36,0.00,,,0.00,meteohub,2013-05-23 09:18:00,
2013-05-23 02:23:00,50.9,34.0,17.73,North,-999,-999.0,-999.0,36,0.00,,,0.00,meteohub,2013-05-23 09:23:00,
2013-05-23 02:28:00,50.9,33.4,17.73,North,-999,-999.0,-999.0,36,0.00,,,0.00,meteohub,2013-05-23 09:28:00,
2013-05-23 02:33:00,50.7,33.3,17.73,North,-999,-999.0,-999.0,37,0.00,,,0.00,meteohub,2013-05-23 09:33:00,
2013-05-23 02:38:00,50.7,33.3,17.73,North,-999,-999.0,-999.0,37,0.00,,,0.00,meteohub,2013-05-23 09:38:00,
2013-05-23 02:43:00,50.7,33.8,17.73,North,-999,-999.0,-999.0,37,0.00,,,0.00,meteohub,2013-05-23 09:43:00,
2013-05-23 02:49:00,50.7,33.8,17.73,North,-999,-999.0,-999.0,37,0.00,,,0.00,meteohub,2013-05-23 09:49:00,
2013-05-23 02:54:00,50.5,33.1,17.73,North,-999,-999.0,-999.0,37,0.00,,,0.00,meteohub,2013-05-23 09:54:00,
2013-05-23 02:59:00,50.5,33.6,17.73,North,-999,-999.0,-999.0,37,0.00,,,0.00,meteohub,2013-05-23 09:59:00,
2013-05-23 03:04:00,50.4,33.4,17.73,North,-999,-999.0,-999.0,37,0.00,,,0.00,meteohub,2013-05-23 10:04:00,
2013-05-23 03:09:00,50.4,33.4,17.73,North,-999,-999.0,-999.0,37,0.00,,,0.00,meteohub,2013-05-23 10:09:00,
2013-05-23 03:14:00,50.4,33.4,17.73,North,-999,-999.0,-999.0,37,0.00,,,0.00,meteohub,2013-05-23 10:14:00,
2013-05-23 03:19:00,50.4,33.4,17.73,North,-999,-999.0,-999.0,37,0.00,,,0.00,meteohub,2013-05-23 10:19:00,
2013-05-23 03:24:00,50.4,32.9,17.73,North,-999,-999.0,-999.0,37,0.00,,,0.00,meteohub,2013-05-23 10:24:00,
2013-05-23 03:29:00,50.2,32.7,17.73,North,-999,-999.0,-999.0,37,0.00,,,0.00,meteohub,2013-05-23 10:29:00,
2013-05-23 03:34:00,50.2,32.7,17.73,North,-999,-999.0,-999.0,37,0.00,,,0.00,meteohub,2013-05-23 10:34:00,
2013-05-23 03:39:00,50.2,33.3,17.73,North,-999,-999.0,-999.0,37,0.00,,,0.00,meteohub,2013-05-23 10:39:00,
2013-05-23 03:44:00,50.2,33.3,17.73,North,-999,-999.0,-999.0,37,0.00,,,0.00,meteohub,2013-05-23 10:44:00,
2013-05-23 03:50:00,50.2,32.7,17.73,North,-999,-999.0,-999.0,37,0.00,,,0.00,meteohub,2013-05-23 10:50:00,
2013-05-23 03:55:00,50.0,32.5,17.73,North,-999,-999.0,-999.0,37,0.00,,,0.00,meteohub,2013-05-23 10:55:00,
2013-05-23 04:00:00,49.8,32.9,17.73,North,-999,-999.0,-999.0,37,0.00,,,0.00,meteohub,2013-05-23 11:00:00,
2013-05-23 04:05:00,49.3,32.4,17.73,North,-999,-999.0,-999.0,37,0.00,,,0.00,meteohub,2013-05-23 11:05:00,
2013-05-23 04:10:00,49.1,32.2,17.73,North,-999,-999.0,-999.0,37,0.00,,,0.00,meteohub,2013-05-23 11:10:00,
2013-05-23 04:15:00,48.9,32.5,17.73,North,-999,-999.0,-999.0,37,0.00,,,0.00,meteohub,2013-05-23 11:15:00,
2013-05-23 04:20:00,48.7,32.4,17.73,North,-999,-999.0,-999.0,37,0.00,,,0.00,meteohub,2013-05-23 11:20:00,
2013-05-23 04:25:00,48.6,32.7,17.73,North,-999,-999.0,-999.0,37,0.00,,,0.00,meteohub,2013-05-23 11:25:00,
2013-05-23 04:31:00,48.4,32.5,17.73,North,-999,-999.0,-999.0,37,0.00,,,0.00,meteohub,2013-05-23 11:31:00,
2013-05-23 04:36:00,48.4,32.9,17.73,North,-999,-999.0,-999.0,37,0.00,,,0.00,meteohub,2013-05-23 11:36:00,
2013-05-23 04:41:00,48.2,32.7,17.73,North,-999,-999.0,-999.0,37,0.00,,,0.00,meteohub,2013-05-23 11:41:00,
2013-05-23 04:46:00,48.0,32.5,17.73,North,-999,-999.0,-999.0,37,0.00,,,0.00,meteohub,2013-05-23 11:46:00,
2013-05-23 04:51:00,47.7,32.4,17.73,North,-999,-999.0,-999.0,37,0.00,,,0.00,meteohub,2013-05-23 11:51:00,
2013-05-23 04:56:00,47.7,32.4,17.73,North,-999,-999.0,-999.0,37,0.00,,,0.00,meteohub,2013-05-23 11:56:00,
2013-05-23 05:01:00,47.5,32.5,17.73,North,-999,-999.0,-999.0,37,0.00,,,0.00,meteohub,2013-05-23 12:01:00,
2013-05-23 05:06:00,47.7,32.7,17.73,North,-999,-999.0,-999.0,37,0.00,,,0.00,meteohub,2013-05-23 12:06:00,
2013-05-23 05:11:00,47.5,32.5,17.73,North,-999,-999.0,-999.0,37,0.00,,,0.00,meteohub,2013-05-23 12:11:00,
2013-05-23 05:16:00,47.5,33.1,17.73,North,-999,-999.0,-999.0,37,0.00,,,0.00,meteohub,2013-05-23 12:16:00,
2013-05-23 05:21:00,47.5,33.1,17.73,North,-999,-999.0,-999.0,37,0.00,,,0.00,meteohub,2013-05-23 12:21:00,
2013-05-23 05:27:00,47.5,33.1,17.73,North,-999,-999.0,-999.0,37,0.00,,,0.00,meteohub,2013-05-23 12:27:00,
2013-05-23 05:32:00,47.3,32.9,17.73,North,-999,-999.0,-999.0,37,0.00,,,0.00,meteohub,2013-05-23 12:32:00,
2013-05-23 05:37:00,47.5,33.1,17.73,North,-999,-999.0,-999.0,37,0.00,,,0.00,meteohub,2013-05-23 12:37:00,
2013-05-23 05:42:00,47.3,32.4,17.73,North,-999,-999.0,-999.0,37,0.00,,,0.00,meteohub,2013-05-23 12:42:00,
2013-05-23 05:47:00,47.1,32.7,17.73,North,-999,-999.0,-999.0,37,0.00,,,0.00,meteohub,2013-05-23 12:47:00,
2013-05-23 05:52:00,47.1,33.1,17.73,North,-999,-999.0,-999.0,37,0.00,,,0.00,meteohub,2013-05-23 12:52:00,
2013-05-23 05:57:00,46.9,32.9,17.73,North,-999,-999.0,-999.0,37,0.00,,,0.00,meteohub,2013-05-23 12:57:00,
2013-05-23 06:02:00,46.8,32.7,17.73,North,-999,-999.0,-999.0,37,0.00,,,0.00,meteohub,2013-05-23 13:02:00,
2013-05-23 06:07:00,46.8,32.7,17.73,North,-999,-999.0,-999.0,37,0.00,,,0.00,meteohub,2013-05-23 13:07:00,
2013-05-23 06:12:00,46.8,32.7,17.73,North,-999,-999.0,-999.0,37,0.00,,,0.00,meteohub,2013-05-23 13:12:00,
2013-05-23 06:17:00,46.8,33.3,17.73,North,-999,-999.0,-999.0,37,0.00,,,0.00,meteohub,2013-05-23 13:17:00,
2013-05-23 06:22:00,46.6,32.5,17.73,North,-999,-999.0,-999.0,37,0.00,,,0.00,meteohub,2013-05-23 13:22:00,
2013-05-23 06:27:00,46.6,33.1,17.73,North,-999,-999.0,-999.0,37,0.00,,,0.00,meteohub,2013-05-23 13:27:00,
2013-05-23 06:32:00,46.4,32.9,17.73,North,-999,-999.0,-999.0,37,0.00,,,0.00,meteohub,2013-05-23 13:32:00,
2013-05-23 06:37:00,46.6,33.4,17.73,North,-999,-999.0,-999.0,37,0.00,,,0.00,meteohub,2013-05-23 13:37:00,
2013-05-23 06:42:00,46.8,34.0,17.73,North,-999,-999.0,-999.0,37,0.00,,,0.00,meteohub,2013-05-23 13:42:00,
2013-05-23 06:47:00,47.1,34.3,17.73,North,-999,-999.0,-999.0,37,0.00,,,0.00,meteohub,2013-05-23 13:47:00,
2013-05-23 06:52:00,47.5,34.3,17.73,North,-999,-999.0,-999.0,37,0.00,,,0.00,meteohub,2013-05-23 13:52:00,
2013-05-23 06:57:00,47.8,33.8,17.73,North,-999,-999.0,-999.0,37,0.00,,,0.00,meteohub,2013-05-23 13:57:00,
2013-05-23 07:02:00,48.4,33.8,17.73,North,-999,-999.0,-999.0,37,0.00,,,0.00,meteohub,2013-05-23 14:02:00,
2013-05-23 07:07:00,48.6,33.6,17.73,North,-999,-999.0,-999.0,37,0.00,,,0.00,meteohub,2013-05-23 14:07:00,
2013-05-23 07:12:00,48.9,33.1,17.73,North,-999,-999.0,-999.0,37,0.00,,,0.00,meteohub,2013-05-23 14:12:00,
2013-05-23 07:17:00,49.1,32.7,17.73,North,-999,-999.0,-999.0,37,0.00,,,0.00,meteohub,2013-05-23 14:17:00,
2013-05-23 07:22:00,49.5,33.1,17.73,North,-999,-999.0,-999.0,37,0.00,,,0.00,meteohub,2013-05-23 14:22:00,
2013-05-23 07:27:00,49.6,33.3,17.73,North,-999,-999.0,-999.0,37,0.00,,,0.00,meteohub,2013-05-23 14:27:00,
2013-05-23 07:32:00,50.0,32.5,17.73,North,-999,-999.0,-999.0,37,0.00,,,0.00,meteohub,2013-05-23 14:32:00,
2013-05-23 07:37:00,50.4,32.0,17.73,North,-999,-999.0,-999.0,37,0.00,,,0.00,meteohub,2013-05-23 14:37:00,
2013-05-23 07:42:00,50.7,32.7,17.73,North,-999,-999.0,-999.0,37,0.00,,,0.00,meteohub,2013-05-23 14:42:00,
2013-05-23 07:47:00,50.9,33.4,17.73,North,-999,-999.0,-999.0,37,0.00,,,0.00,meteohub,2013-05-23 14:47:00,
2013-05-23 07:52:00,51.1,32.5,17.73,North,-999,-999.0,-999.0,38,0.00,,,0.00,meteohub,2013-05-23 14:52:00,
2013-05-23 07:57:00,51.4,32.9,17.73,North,-999,-999.0,-999.0,38,0.00,,,0.00,meteohub,2013-05-23 14:57:00,
2013-05-23 08:02:00,51.6,33.1,17.73,North,-999,-999.0,-999.0,38,0.00,,,0.00,meteohub,2013-05-23 15:02:00,
2013-05-23 08:07:00,51.6,33.1,17.73,North,-999,-999.0,-999.0,38,0.00,,,0.00,meteohub,2013-05-23 15:07:00,
2013-05-23 08:12:00,51.8,33.3,17.73,North,-999,-999.0,-999.0,38,0.00,,,0.00,meteohub,2013-05-23 15:12:00,
2013-05-23 08:17:00,52.2,33.6,17.73,North,-999,-999.0,-999.0,38,0.00,,,0.00,meteohub,2013-05-23 15:17:00,
2013-05-23 08:22:00,52.5,33.4,17.73,North,-999,-999.0,-999.0,38,0.00,,,0.00,meteohub,2013-05-23 15:22:00,
2013-05-23 08:27:00,52.7,33.1,17.73,North,-999,-999.0,-999.0,38,0.00,,,0.00,meteohub,2013-05-23 15:27:00,
2013-05-23 08:32:00,52.9,33.3,17.73,North,-999,-999.0,-999.0,38,0.00,,,0.00,meteohub,2013-05-23 15:32:00,
2013-05-23 08:37:00,53.2,33.4,17.73,North,-999,-999.0,-999.0,38,0.00,,,0.00,meteohub,2013-05-23 15:37:00,
2013-05-23 08:42:00,53.4,33.1,17.73,North,-999,-999.0,-999.0,38,0.00,,,0.00,meteohub,2013-05-23 15:42:00,
2013-05-23 08:47:00,53.6,33.3,17.73,North,-999,-999.0,-999.0,38,0.00,,,0.00,meteohub,2013-05-23 15:47:00,
2013-05-23 08:52:00,53.8,33.4,17.73,North,-999,-999.0,-999.0,38,0.00,,,0.00,meteohub,2013-05-23 15:52:00,
2013-05-23 08:57:00,54.0,33.1,17.73,North,-999,-999.0,-999.0,38,0.00,,,0.00,meteohub,2013-05-23 15:57:00,
2013-05-23 09:02:00,54.1,33.3,17.73,North,-999,-999.0,-999.0,38,0.00,,,0.00,meteohub,2013-05-23 16:02:00,
2013-05-23 09:07:00,54.3,33.4,17.73,North,-999,-999.0,-999.0,38,0.00,,,0.00,meteohub,2013-05-23 16:07:00,
2013-05-23 09:12:00,54.7,33.3,17.73,North,-999,-999.0,-999.0,38,0.00,,,0.00,meteohub,2013-05-23 16:12:00,
2013-05-23 09:17:00,54.7,32.5,17.73,North,-999,-999.0,-999.0,38,0.00,,,0.00,meteohub,2013-05-23 16:17:00,
2013-05-23 09:22:00,55.2,33.1,17.73,North,-999,-999.0,-999.0,38,0.00,,,0.00,meteohub,2013-05-23 16:22:00,
2013-05-23 09:27:00,55.4,32.7,17.73,North,-999,-999.0,-999.0,38,0.00,,,0.00,meteohub,2013-05-23 16:27:00,
2013-05-23 09:32:00,55.6,33.4,17.73,North,-999,-999.0,-999.0,38,0.00,,,0.00,meteohub,2013-05-23 16:32:00,
2013-05-23 09:37:00,55.9,33.8,17.73,North,-999,-999.0,-999.0,38,0.00,,,0.00,meteohub,2013-05-23 16:37:00,
2013-05-23 09:42:00,56.3,32.9,17.73,North,-999,-999.0,-999.0,38,0.00,,,0.00,meteohub,2013-05-23 16:42:00,
2013-05-23 09:47:00,56.3,32.9,17.73,North,-999,-999.0,-999.0,38,0.00,,,0.00,meteohub,2013-05-23 16:47:00,
2013-05-23 09:52:00,56.7,32.5,17.73,North,-999,-999.0,-999.0,38,0.00,,,0.00,meteohub,2013-05-23 16:52:00,
2013-05-23 09:57:00,56.8,32.7,17.73,North,-999,-999.0,-999.0,38,0.00,,,0.00,meteohub,2013-05-23 16:57:00,
2013-05-23 10:02:00,57.0,32.9,17.73,North,-999,-999.0,-999.0,38,0.00,,,0.00,meteohub,2013-05-23 17:02:00,
2013-05-23 10:07:00,57.2,33.1,17.73,North,-999,-999.0,-999.0,37,0.00,,,0.00,meteohub,2013-05-23 17:07:00,
2013-05-23 10:12:00,57.2,32.5,17.73,North,-999,-999.0,-999.0,37,0.00,,,0.00,meteohub,2013-05-23 17:12:00,
2013-05-23 10:17:00,57.6,32.7,17.73,North,-999,-999.0,-999.0,37,0.00,,,0.00,meteohub,2013-05-23 17:17:00,
2013-05-23 10:22:00,57.7,32.9,17.73,North,-999,-999.0,-999.0,37,0.00,,,0.00,meteohub,2013-05-23 17:22:00,
2013-05-23 10:27:00,57.7,32.9,17.73,North,-999,-999.0,-999.0,37,0.00,,,0.00,meteohub,2013-05-23 17:27:00,
2013-05-23 10:32:00,57.7,32.9,17.73,North,-999,-999.0,-999.0,37,0.00,,,0.00,meteohub,2013-05-23 17:32:00,
2013-05-23 10:37:00,57.6,32.7,17.73,North,-999,-999.0,-999.0,37,0.00,,,0.00,meteohub,2013-05-23 17:37:00,
2013-05-23 10:42:00,57.9,33.1,17.73,North,-999,-999.0,-999.0,37,0.00,,,0.00,meteohub,2013-05-23 17:42:00,
2013-05-23 10:47:00,58.5,33.6,17.73,North,-999,-999.0,-999.0,37,0.00,,,0.00,meteohub,2013-05-23 17:47:00,
2013-05-23 10:52:00,59.0,33.4,17.73,North,-999,-999.0,-999.0,37,0.00,,,0.00,meteohub,2013-05-23 17:52:00,
2013-05-23 10:57:00,59.4,33.8,17.73,North,-999,-999.0,-999.0,37,0.00,,,0.00,meteohub,2013-05-23 17:57:00,
2013-05-23 11:02:00,59.7,33.4,17.73,North,-999,-999.0,-999.0,37,0.00,,,0.00,meteohub,2013-05-23 18:02:00,
2013-05-23 11:07:00,60.1,33.8,17.73,North,-999,-999.0,-999.0,37,0.00,,,0.00,meteohub,2013-05-23 18:07:00,
2013-05-23 11:12:00,60.4,34.0,17.73,North,-999,-999.0,-999.0,37,0.00,,,0.00,meteohub,2013-05-23 18:12:00,
2013-05-23 11:17:00,61.0,33.8,17.73,North,-999,-999.0,-999.0,37,0.00,,,0.00,meteohub,2013-05-23 18:17:00,
2013-05-23 11:22:00,61.0,33.8,17.73,North,-999,-999.0,-999.0,37,0.00,,,0.00,meteohub,2013-05-23 18:22:00,
2013-05-23 11:27:00,61.2,34.0,17.73,North,-999,-999.0,-999.0,37,0.00,,,0.00,meteohub,2013-05-23 18:27:00,
2013-05-23 11:32:00,61.3,33.4,17.73,North,-999,-999.0,-999.0,37,0.00,,,0.00,meteohub,2013-05-23 18:32:00,
2013-05-23 11:37:00,61.5,33.6,17.73,North,-999,-999.0,-999.0,37,0.00,,,0.00,meteohub,2013-05-23 18:37:00,
2013-05-23 11:42:00,61.9,34.0,17.73,North,-999,-999.0,-999.0,37,0.00,,,0.00,meteohub,2013-05-23 18:42:00,
2013-05-23 11:47:00,62.2,34.2,17.73,North,-999,-999.0,-999.0,37,0.00,,,0.00,meteohub,2013-05-23 18:47:00,
2013-05-23 11:52:00,62.4,34.3,17.73,North,-999,-999.0,-999.0,37,0.00,,,0.00,meteohub,2013-05-23 18:52:00,
2013-05-23 11:57:00,63.0,34.9,17.73,North,-999,-999.0,-999.0,37,0.00,,,0.00,meteohub,2013-05-23 18:57:00,
2013-05-23 12:02:00,63.3,35.2,17.73,North,-999,-999.0,-999.0,37,0.00,,,0.00,meteohub,2013-05-23 19:02:00,
2013-05-23 12:07:00,63.5,34.7,17.73,North,-999,-999.0,-999.0,36,0.00,,,0.00,meteohub,2013-05-23 19:07:00,
2013-05-23 12:12:00,63.5,34.7,17.73,North,-999,-999.0,-999.0,36,0.00,,,0.00,meteohub,2013-05-23 19:12:00,
2013-05-23 12:17:00,64.0,35.1,17.73,North,-999,-999.0,-999.0,36,0.00,,,0.00,meteohub,2013-05-23 19:17:00,
2013-05-23 12:23:00,64.4,35.4,17.73,North,-999,-999.0,-999.0,36,0.00,,,0.00,meteohub,2013-05-23 19:23:00,
2013-05-23 12:28:00,64.6,34.9,17.73,North,-999,-999.0,-999.0,36,0.00,,,0.00,meteohub,2013-05-23 19:28:00,
2013-05-23 12:33:00,64.8,35.1,17.73,North,-999,-999.0,-999.0,36,0.00,,,0.00,meteohub,2013-05-23 19:33:00,
2013-05-23 12:38:00,65.3,36.1,17.73,North,-999,-999.0,-999.0,36,0.00,,,0.00,meteohub,2013-05-23 19:38:00,
2013-05-23 12:43:00,65.7,35.8,17.73,North,-999,-999.0,-999.0,36,0.00,,,0.00,meteohub,2013-05-23 19:43:00,
2013-05-23 12:48:00,65.3,35.4,17.73,North,-999,-999.0,-999.0,36,0.00,,,0.00,meteohub,2013-05-23 19:48:00,
2013-05-23 12:53:00,65.5,35.6,17.73,North,-999,-999.0,-999.0,36,0.00,,,0.00,meteohub,2013-05-23 19:53:00,
2013-05-23 12:58:00,65.8,36.0,17.73,North,-999,-999.0,-999.0,36,0.00,,,0.00,meteohub,2013-05-23 19:58:00,
2013-05-23 13:03:00,65.8,36.0,17.73,North,-999,-999.0,-999.0,36,0.00,,,0.00,meteohub,2013-05-23 20:03:00,
2013-05-23 13:08:00,65.8,36.0,17.73,North,-999,-999.0,-999.0,36,0.00,,,0.00,meteohub,2013-05-23 20:08:00,
2013-05-23 13:14:00,66.0,36.1,17.73,North,-999,-999.0,-999.0,36,0.00,,,0.00,meteohub,2013-05-23 20:14:00,
2013-05-23 13:19:00,66.6,36.5,17.73,North,-999,-999.0,-999.0,36,0.00,,,0.00,meteohub,2013-05-23 20:19:00,
2013-05-23 13:24:00,67.1,37.0,17.73,North,-999,-999.0,-999.0,36,0.00,,,0.00,meteohub,2013-05-23 20:24:00,
2013-05-23 13:29:00,67.3,37.2,17.73,North,-999,-999.0,-999.0,36,0.00,,,0.00,meteohub,2013-05-23 20:29:00,
2013-05-23 13:34:00,67.5,37.4,17.73,North,-999,-999.0,-999.0,36,0.00,,,0.00,meteohub,2013-05-23 20:34:00,
2013-05-23 13:39:00,67.5,37.4,17.73,North,-999,-999.0,-999.0,36,0.00,,,0.00,meteohub,2013-05-23 20:39:00,
2013-05-23 13:44:00,67.3,36.5,17.73,North,-999,-999.0,-999.0,36,0.00,,,0.00,meteohub,2013-05-23 20:44:00,
2013-05-23 13:49:00,67.3,36.5,17.73,North,-999,-999.0,-999.0,36,0.00,,,0.00,meteohub,2013-05-23 20:49:00,
2013-05-23 13:54:00,67.5,36.5,17.73,North,-999,-999.0,-999.0,36,0.00,,,0.00,meteohub,2013-05-23 20:54:00,
2013-05-23 13:59:00,67.8,36.9,17.73,North,-999,-999.0,-999.0,36,0.00,,,0.00,meteohub,2013-05-23 20:59:00,
2013-05-23 14:04:00,68.0,37.0,17.73,North,-999,-999.0,-999.0,36,0.00,,,0.00,meteohub,2013-05-23 21:04:00,
2013-05-23 14:10:00,68.4,37.4,17.73,North,-999,-999.0,-999.0,36,0.00,,,0.00,meteohub,2013-05-23 21:10:00,
2013-05-23 14:15:00,68.5,36.7,17.73,North,-999,-999.0,-999.0,36,0.00,,,0.00,meteohub,2013-05-23 21:15:00,
2013-05-23 14:20:00,68.9,37.0,17.73,North,-999,-999.0,-999.0,36,0.00,,,0.00,meteohub,2013-05-23 21:20:00,
2013-05-23 14:25:00,69.1,37.2,17.73,North,-999,-999.0,-999.0,36,0.00,,,0.00,meteohub,2013-05-23 21:25:00,
2013-05-23 14:30:00,69.4,38.3,17.73,North,-999,-999.0,-999.0,36,0.00,,,0.00,meteohub,2013-05-23 21:30:00,
2013-05-23 14:35:00,69.8,37.0,17.73,North,-999,-999.0,-999.0,36,0.00,,,0.00,meteohub,2013-05-23 21:35:00,
2013-05-23 14:40:00,70.0,37.0,17.73,North,-999,-999.0,-999.0,36,0.00,,,0.00,meteohub,2013-05-23 21:40:00,
2013-05-23 14:45:00,70.3,38.3,17.73,North,-999,-999.0,-999.0,36,0.00,,,0.00,meteohub,2013-05-23 21:45:00,
2013-05-23 14:50:00,70.9,37.9,17.73,North,-999,-999.0,-999.0,36,0.00,,,0.00,meteohub,2013-05-23 21:50:00,
2013-05-23 14:55:00,71.4,39.2,17.73,North,-999,-999.0,-999.0,36,0.00,,,0.00,meteohub,2013-05-23 21:55:00,
2013-05-23 15:00:00,71.6,37.6,17.73,North,-999,-999.0,-999.0,36,0.00,,,0.00,meteohub,2013-05-23 22:00:00,
2013-05-23 15:06:00,71.6,37.6,17.73,North,-999,-999.0,-999.0,36,0.00,,,0.00,meteohub,2013-05-23 22:06:00,
2013-05-23 15:11:00,72.0,38.8,17.73,North,-999,-999.0,-999.0,36,0.00,,,0.00,meteohub,2013-05-23 22:11:00,
2013-05-23 15:16:00,72.3,37.4,17.73,North,-999,-999.0,-999.0,36,0.00,,,0.00,meteohub,2013-05-23 22:16:00,
2013-05-23 15:21:00,71.4,37.6,17.73,North,-999,-999.0,-999.0,36,0.00,,,0.00,meteohub,2013-05-23 22:21:00,
2013-05-23 15:26:00,71.6,37.6,17.73,North,-999,-999.0,-999.0,36,0.00,,,0.00,meteohub,2013-05-23 22:26:00,
2013-05-23 15:31:00,71.8,36.9,17.73,North,-999,-999.0,-999.0,35,0.00,,,0.00,meteohub,2013-05-23 22:31:00,
2013-05-23 15:36:00,71.1,36.3,17.73,North,-999,-999.0,-999.0,35,0.00,,,0.00,meteohub,2013-05-23 22:36:00,
2013-05-23 15:41:00,71.6,36.7,17.73,North,-999,-999.0,-999.0,36,0.00,,,0.00,meteohub,2013-05-23 22:41:00,
2013-05-23 15:46:00,72.0,37.0,17.73,North,-999,-999.0,-999.0,36,0.00,,,0.00,meteohub,2013-05-23 22:46:00,
2013-05-23 15:51:00,72.5,37.6,17.73,North,-999,-999.0,-999.0,36,0.00,,,0.00,meteohub,2013-05-23 22:51:00,
2013-05-23 15:56:00,72.9,37.8,17.73,North,-999,-999.0,-999.0,36,0.00,,,0.00,meteohub,2013-05-23 22:56:00,
2013-05-23 16:02:00,73.0,37.9,17.73,North,-999,-999.0,-999.0,36,0.00,,,0.00,meteohub,2013-05-23 23:02:00,
2013-05-23 16:07:00,72.7,36.9,17.73,North,-999,-999.0,-999.0,36,0.00,,,0.00,meteohub,2013-05-23 23:07:00,
2013-05-23 16:12:00,72.7,36.9,17.73,North,-999,-999.0,-999.0,36,0.00,,,0.00,meteohub,2013-05-23 23:12:00,
2013-05-23 16:17:00,72.5,37.6,17.73,North,-999,-999.0,-999.0,36,0.00,,,0.00,meteohub,2013-05-23 23:17:00,
2013-05-23 16:22:00,72.7,35.8,17.73,North,-999,-999.0,-999.0,36,0.00,,,0.00,meteohub,2013-05-23 23:22:00,
2013-05-23 16:27:00,72.5,36.7,17.73,North,-999,-999.0,-999.0,36,0.00,,,0.00,meteohub,2013-05-23 23:27:00,
2013-05-23 16:32:00,72.5,36.7,17.73,North,-999,-999.0,-999.0,36,0.00,,,0.00,meteohub,2013-05-23 23:32:00,
2013-05-23 16:37:00,71.4,35.8,17.73,North,-999,-999.0,-999.0,36,0.00,,,0.00,meteohub,2013-05-23 23:37:00,
2013-05-23 16:42:00,71.4,36.7,17.73,North,-999,-999.0,-999.0,36,0.00,,,0.00,meteohub,2013-05-23 23:42:00,
2013-05-23 16:47:00,72.0,36.1,17.73,North,-999,-999.0,-999.0,36,0.00,,,0.00,meteohub,2013-05-23 23:47:00,
2013-05-23 16:52:00,72.1,36.3,17.73,North,-999,-999.0,-999.0,36,0.00,,,0.00,meteohub,2013-05-23 23:52:00,
2013-05-23 16:57:00,71.8,36.0,17.73,North,-999,-999.0,-999.0,36,0.00,,,0.00,meteohub,2013-05-23 23:57:00,
2013-05-23 17:02:00,71.4,35.8,17.73,North,-999,-999.0,-999.0,36,0.00,,,0.00,meteohub,2013-05-24 00:02:00,
2013-05-23 17:07:00,71.2,35.6,17.73,North,-999,-999.0,-999.0,36,0.00,,,0.00,meteohub,2013-05-24 00:07:00,
2013-05-23 17:12:00,70.7,35.1,17.73,North,-999,-999.0,-999.0,36,0.00,,,0.00,meteohub,2013-05-24 00:12:00,
2013-05-23 17:17:00,70.7,35.1,17.73,North,-999,-999.0,-999.0,36,0.00,,,0.00,meteohub,2013-05-24 00:17:00,
2013-05-23 17:22:00,70.5,34.9,17.73,North,-999,-999.0,-999.0,36,0.00,,,0.00,meteohub,2013-05-24 00:22:00,
2013-05-23 17:27:00,70.3,34.7,17.73,North,-999,-999.0,-999.0,36,0.00,,,0.00,meteohub,2013-05-24 00:27:00,
2013-05-23 17:32:00,69.8,34.3,17.73,North,-999,-999.0,-999.0,36,0.00,,,0.00,meteohub,2013-05-24 00:32:00,
2013-05-23 17:37:00,69.8,34.3,17.73,North,-999,-999.0,-999.0,36,0.00,,,0.00,meteohub,2013-05-24 00:37:00,
2013-05-23 17:42:00,69.6,34.2,17.73,North,-999,-999.0,-999.0,36,0.00,,,0.00,meteohub,2013-05-24 00:42:00,
2013-05-23 17:47:00,69.3,33.8,17.73,North,-999,-999.0,-999.0,36,0.00,,,0.00,meteohub,2013-05-24 00:47:00,
2013-05-23 17:52:00,69.1,33.6,17.73,North,-999,-999.0,-999.0,36,0.00,,,0.00,meteohub,2013-05-24 00:52:00,
2013-05-23 17:57:00,68.7,34.3,17.73,North,-999,-999.0,-999.0,36,0.00,,,0.00,meteohub,2013-05-24 00:57:00,
2013-05-23 18:02:00,68.2,33.8,17.73,North,-999,-999.0,-999.0,36,0.00,,,0.00,meteohub,2013-05-24 01:02:00,
2013-05-23 18:07:00,67.6,33.4,17.73,North,-999,-999.0,-999.0,36,0.00,,,0.00,meteohub,2013-05-24 01:07:00,
2013-05-23 18:12:00,67.3,33.1,17.73,North,-999,-999.0,-999.0,36,0.00,,,0.00,meteohub,2013-05-24 01:12:00,
2013-05-23 18:17:00,67.1,33.8,17.73,North,-999,-999.0,-999.0,36,0.00,,,0.00,meteohub,2013-05-24 01:17:00,
2013-05-23 18:22:00,66.6,32.4,17.73,North,-999,-999.0,-999.0,36,0.00,,,0.00,meteohub,2013-05-24 01:22:00,
2013-05-23 18:27:00,66.2,33.1,17.73,North,-999,-999.0,-999.0,36,0.00,,,0.00,meteohub,2013-05-24 01:27:00,
2013-05-23 18:32:00,65.8,33.6,17.73,North,-999,-999.0,-999.0,36,0.00,,,0.00,meteohub,2013-05-24 01:32:00,
2013-05-23 18:37:00,65.3,33.1,17.73,North,-999,-999.0,-999.0,36,0.00,,,0.00,meteohub,2013-05-24 01:37:00,
2013-05-23 18:42:00,64.9,32.7,17.73,North,-999,-999.0,-999.0,36,0.00,,,0.00,meteohub,2013-05-24 01:42:00,
2013-05-23 18:47:00,64.6,31.6,17.73,North,-999,-999.0,-999.0,36,0.00,,,0.00,meteohub,2013-05-24 01:47:00,
2013-05-23 18:52:00,64.2,32.2,17.73,North,-999,-999.0,-999.0,36,0.00,,,0.00,meteohub,2013-05-24 01:52:00,
2013-05-23 18:57:00,63.9,30.9,17.73,North,-999,-999.0,-999.0,36,0.00,,,0.00,meteohub,2013-05-24 01:57:00,
2013-05-23 19:02:00,63.7,30.7,17.73,North,-999,-999.0,-999.0,36,0.00,,,0.00,meteohub,2013-05-24 02:02:00,
2013-05-23 19:07:00,63.5,30.7,17.73,North,-999,-999.0,-999.0,36,0.00,,,0.00,meteohub,2013-05-24 02:07:00,
2013-05-23 19:12:00,63.3,30.6,17.73,North,-999,-999.0,-999.0,36,0.00,,,0.00,meteohub,2013-05-24 02:12:00,
2013-05-23 19:17:00,63.1,30.4,17.73,North,-999,-999.0,-999.0,36,0.00,,,0.00,meteohub,2013-05-24 02:17:00,
2013-05-23 19:22:00,63.0,30.2,17.73,North,-999,-999.0,-999.0,36,0.00,,,0.00,meteohub,2013-05-24 02:22:00,
2013-05-23 19:27:00,63.0,30.2,17.73,North,-999,-999.0,-999.0,36,0.00,,,0.00,meteohub,2013-05-24 02:27:00,
2013-05-23 19:32:00,62.6,29.8,17.73,North,-999,-999.0,-999.0,36,0.00,,,0.00,meteohub,2013-05-24 02:32:00,
2013-05-23 19:37:00,62.2,29.7,17.73,North,-999,-999.0,-999.0,36,0.00,,,0.00,meteohub,2013-05-24 02:37:00,
2013-05-23 19:42:00,61.9,29.3,17.73,North,-999,-999.0,-999.0,36,0.00,,,0.00,meteohub,2013-05-24 02:42:00,
2013-05-23 19:47:00,61.7,30.0,17.73,North,-999,-999.0,-999.0,36,0.00,,,0.00,meteohub,2013-05-24 02:47:00,
2013-05-23 19:52:00,61.5,29.8,17.73,North,-999,-999.0,-999.0,36,0.00,,,0.00,meteohub,2013-05-24 02:52:00,
2013-05-23 19:57:00,61.3,29.7,17.73,North,-999,-999.0,-999.0,36,0.00,,,0.00,meteohub,2013-05-24 02:57:00,
2013-05-23 20:02:00,61.0,29.3,17.73,North,-999,-999.0,-999.0,36,0.00,,,0.00,meteohub,2013-05-24 03:02:00,
2013-05-23 20:07:00,60.8,29.1,17.73,North,-999,-999.0,-999.0,36,0.00,,,0.00,meteohub,2013-05-24 03:07:00,
2013-05-23 20:12:00,60.6,28.9,17.73,North,-999,-999.0,-999.0,36,0.00,,,0.00,meteohub,2013-05-24 03:12:00,
2013-05-23 20:17:00,60.4,28.9,17.73,North,-999,-999.0,-999.0,36,0.00,,,0.00,meteohub,2013-05-24 03:17:00,
2013-05-23 20:22:00,60.4,28.9,17.73,North,-999,-999.0,-999.0,36,0.00,,,0.00,meteohub,2013-05-24 03:22:00,
2013-05-23 20:27:00,60.1,28.6,17.73,North,-999,-999.0,-999.0,36,0.00,,,0.00,meteohub,2013-05-24 03:27:00,
2013-05-23 20:32:00,59.7,28.2,17.73,North,-999,-999.0,-999.0,36,0.00,,,0.00,meteohub,2013-05-24 03:32:00,
2013-05-23 20:37:00,59.5,28.0,17.73,North,-999,-999.0,-999.0,36,0.00,,,0.00,meteohub,2013-05-24 03:37:00,
2013-05-23 20:42:00,59.4,27.9,17.73,North,-999,-999.0,-999.0,36,0.00,,,0.00,meteohub,2013-05-24 03:42:00,
2013-05-23 20:47:00,59.2,27.7,17.73,North,-999,-999.0,-999.0,36,0.00,,,0.00,meteohub,2013-05-24 03:47:00,
2013-05-23 20:52:00,59.0,27.7,17.73,North,-999,-999.0,-999.0,36,0.00,,,0.00,meteohub,2013-05-24 03:52:00,
2013-05-23 20:57:00,58.8,28.2,17.73,North,-999,-999.0,-999.0,36,0.00,,,0.00,meteohub,2013-05-24 03:57:00,
2013-05-23 21:01:00,58.6,28.0,17.73,North,-999,-999.0,-999.0,36,0.00,,,0.00,meteohub,2013-05-24 04:01:00,
2013-05-23 21:02:00,58.5,27.9,17.73,North,-999,-999.0,-999.0,36,0.00,,,0.00,meteohub,2013-05-24 04:02:00,
2013-05-23 21:04:00,58.5,27.9,17.73,North,-999,-999.0,-999.0,36,0.00,,,0.00,meteohub,2013-05-24 04:04:00,
2013-05-23 21:07:00,58.5,27.9,17.73,North,-999,-999.0,-999.0,36,0.00,,,0.00,meteohub,2013-05-24 04:07:00,
2013-05-23 21:12:00,58.5,27.9,17.73,North,-999,-999.0,-999.0,36,0.00,,,0.00,meteohub,2013-05-24 04:12:00,
2013-05-23 21:17:00,58.3,28.6,17.73,North,-999,-999.0,-999.0,36,0.00,,,0.00,meteohub,2013-05-24 04:17:00,
2013-05-23 21:22:00,57.9,28.2,17.73,North,-999,-999.0,-999.0,36,0.00,,,0.00,meteohub,2013-05-24 04:22:00,
2013-05-23 21:27:00,57.6,27.9,17.73,North,-999,-999.0,-999.0,36,0.00,,,0.00,meteohub,2013-05-24 04:27:00,
2013-05-23 21:32:00,57.2,28.4,17.73,North,-999,-999.0,-999.0,36,0.00,,,0.00,meteohub,2013-05-24 04:32:00,
2013-05-23 21:37:00,56.8,28.8,17.73,North,-999,-999.0,-999.0,36,0.00,,,0.00,meteohub,2013-05-24 04:37:00,
2013-05-23 21:42:00,56.7,28.6,17.73,North,-999,-999.0,-999.0,36,0.00,,,0.00,meteohub,2013-05-24 04:42:00,
2013-05-23 21:47:00,56.5,29.1,17.73,North,-999,-999.0,-999.0,36,0.00,,,0.00,meteohub,2013-05-24 04:47:00,
2013-05-23 21:52:00,56.1,28.8,17.73,North,-999,-999.0,-999.0,36,0.00,,,0.00,meteohub,2013-05-24 04:52:00,
2013-05-23 21:57:00,55.9,28.8,17.73,North,-999,-999.0,-999.0,36,0.00,,,0.00,meteohub,2013-05-24 04:57:00,
2013-05-23 22:02:00,55.8,29.1,17.73,North,-999,-999.0,-999.0,36,0.00,,,0.00,meteohub,2013-05-24 05:02:00,
2013-05-23 22:07:00,55.4,28.9,17.73,North,-999,-999.0,-999.0,36,0.00,,,0.00,meteohub,2013-05-24 05:07:00,
2013-05-23 22:12:00,55.2,29.5,17.73,North,-999,-999.0,-999.0,37,0.00,,,0.00,meteohub,2013-05-24 05:12:00,
2013-05-23 22:17:00,55.0,29.3,17.73,North,-999,-999.0,-999.0,37,0.00,,,0.00,meteohub,2013-05-24 05:17:00,
2013-05-23 22:22:00,54.9,29.1,17.73,North,-999,-999.0,-999.0,37,0.00,,,0.00,meteohub,2013-05-24 05:22:00,
2013-05-23 22:27:00,54.7,28.9,17.73,North,-999,-999.0,-999.0,37,0.00,,,0.00,meteohub,2013-05-24 05:27:00,
2013-05-23 22:32:00,54.5,28.8,17.73,North,-999,-999.0,-999.0,37,0.00,,,0.00,meteohub,2013-05-24 05:32:00,
2013-05-23 22:37:00,54.3,28.6,17.73,North,-999,-999.0,-999.0,37,0.00,,,0.00,meteohub,2013-05-24 05:37:00,
2013-05-23 22:42:00,54.1,28.4,17.73,North,-999,-999.0,-999.0,37,0.00,,,0.00,meteohub,2013-05-24 05:42:00,
2013-05-23 22:47:00,54.0,28.2,17.73,North,-999,-999.0,-999.0,37,0.00,,,0.00,meteohub,2013-05-24 05:47:00,
2013-05-23 22:52:00,53.8,28.0,17.73,North,-999,-999.0,-999.0,37,0.00,,,0.00,meteohub,2013-05-24 05:52:00,
2013-05-23 22:57:00,53.6,28.0,17.73,North,-999,-999.0,-999.0,37,0.00,,,0.00,meteohub,2013-05-24 05:57:00,
2013-05-23 23:02:00,53.4,27.9,17.73,North,-999,-999.0,-999.0,37,0.00,,,0.00,meteohub,2013-05-24 06:02:00,
2013-05-23 23:07:00,53.2,27.7,17.73,North,-999,-999.0,-999.0,37,0.00,,,0.00,meteohub,2013-05-24 06:07:00,
2013-05-23 23:12:00,53.1,27.5,17.73,North,-999,-999.0,-999.0,37,0.00,,,0.00,meteohub,2013-05-24 06:12:00,
2013-05-23 23:17:00,52.9,27.3,17.73,North,-999,-999.0,-999.0,37,0.00,,,0.00,meteohub,2013-05-24 06:17:00,
2013-05-23 23:22:00,52.7,27.1,17.73,North,-999,-999.0,-999.0,37,0.00,,,0.00,meteohub,2013-05-24 06:22:00,
2013-05-23 23:27:00,52.5,27.7,17.73,North,-999,-999.0,-999.0,37,0.00,,,0.00,meteohub,2013-05-24 06:27:00,
2013-05-23 23:32:00,52.3,27.5,17.73,North,-999,-999.0,-999.0,37,0.00,,,0.00,meteohub,2013-05-24 06:32:00,
2013-05-23 23:37:00,52.2,27.3,17.73,North,-999,-999.0,-999.0,37,0.00,,,0.00,meteohub,2013-05-24 06:37:00,
2013-05-23 23:42:00,52.0,27.1,17.73,North,-999,-999.0,-999.0,37,0.00,,,0.00,meteohub,2013-05-24 06:42:00,
2013-05-23 23:47:00,51.6,27.5,17.73,North,-999,-999.0,-999.0,37,0.00,,,0.00,meteohub,2013-05-24 06:47:00,
2013-05-23 23:52:00,51.6,27.5,17.73,North,-999,-999.0,-999.0,37,0.00,,,0.00,meteohub,2013-05-24 06:52:00,
2013-05-23 23:57:00,51.4,27.9,17.73,North,-999,-999.0,-999.0,37,0.00,,,0.00,meteohub,2013-05-24 06:57:00,